EUTELSAT HOT BIRD 13D

Last updated on Sun Aug 21 2016 09:38:57 GMT+0000 (Coordinated Universal Time)

1 33750U 09008B 16234.06103610 .00000137 00000-0 00000+0 0 9998 2 33750 0.0162 328.9496 0005624 213.1046 202.7987 1.00272235 27639

Satellite not in orbit

EUTELSAT HOT BIRD 13D